AMGU-1 (AMURSAT) (44394 NORAD) Tracking and Keplerian Element Data

This shows tracking and keplerian element data for the satellite.

Feedback or suggestion? Click here.




ElementValue
Catalog44394
NameAMGU-1 (AMURSAT)
Epoch Orbit429
Epoch Day214.88961513
Epoch Year2019
RAAN176.2972
Inclination97.4917
Eccentricity0.0023077
Argument of Perigee148.6635
Mean Anonmoly211.5976
Mean Motion15.12018773
Decay Rate3.99E-06
L11 44394U 19038J 19214.88961513 .00000399 00000-0 26838-4 0 9995
L22 44394 97.4917 176.2972 0023077 148.6635 211.5976 15.12018773 4290

Live tracking and technical data element details for AMGU-1 (AMURSAT) (NORAD 44394). AMGU-1 (AMURSAT) can be tracked NOW for your location showing map with azimuth and elevation plus other details from your city location.

Track the satellite on the map from your city or location and see movement details for azimuth, elevation, latitude, longitude, range, height, and movement on the map or in text.







IsCatalogInMostPopularTable: catalog: 44394, numindb: 15
Update: records affected: 1



GetName: 44394 AMGU-1 (AMURSAT)

Hit Count: updated at: Tue, 22 Oct 2019 23:53:21 GMT